Weather History for Del Rio, TX

Change the Weather History Date:

Thursday, November 1, 2012

  Actual Average Record
Temperature  
Mean Temperature 71 °F 67 °F  
Max Temperature 85 °F 78 °F 90 °F (2010)
Min Temperature 56 °F 56 °F 37 °F (1991)
Degree Days  
Heating Degree Days 0 2  
Month to date heating degree days 0 2  
Since 1 July heating degree days 28 26  
Cooling Degree Days 6 4  
Month to date cooling degree days 6 4  
Year to date cooling degree days 3993 3329  
Growing Degree Days 20 (Base 50)    
Moisture  
Dew Point 59 °F    
Average Humidity 72    
Maximum Humidity 100    
Minimum Humidity 43    
Precipitation  
Precipitation 0.00 in 0.04 in 2.62 in (1914)
Month to date precipitation 0.00 0.04  
Year to date precipitation 13.78 17.98  
Sea Level Pressure  
Sea Level Pressure 30.00 in    
Wind  
Wind Speed 5 mph (ESE)    
Max Wind Speed 16 mph    
Max Gust Speed 21 mph    
Visibility 8 miles    
Events Fog    
T = Trace of Precipitation, MM = Missing Value Source: NWS Daily Summary

Daily Weather History Graph

Daily Weather History Graph

Search for Another Location

Airport:

Trip Planner

Search our weather history database for the weather conditions in past years. The results will help you decide how hot, cold, wet, or windy it might be!

Date:

Astronomy

Nov. 01, 2012 Rise Set
Actual Time 7:57 AM CDT 6:57 PM CDT
Civil Twilight 7:32 AM CDT 7:21 PM CDT
Nautical Twilight 7:04 AM CDT 7:49 PM CDT
Astronomical Twilight 6:36 AM CDT 8:17 PM CDT
Moon 9:05 PM CDT 10:21 AM CDT
Length of Visible Light 11h 49m
Length of Day
10h 59m
Waning Gibbous, 93% of the Moon is Illuminated
Nov 1
Waning Gibbous
Nov 6
Last Quarter
Nov 13
New
Nov 20
First Quarter
Nov 28
Full

Hourly Weather History & Observations

Time (CDT) Temp. Heat Index Dew Point Humidity Pressure Visibility Wind Dir Wind Speed Gust Speed Precip Events Conditions
12:53 AM 62.1 °F - 54.0 °F 75% 30.00 in 10.0 mi NE 4.6 mph - N/A   Clear
1:53 AM 62.1 °F - 55.0 °F 78% 30.00 in 10.0 mi ENE 4.6 mph - N/A   Clear
2:53 AM 57.0 °F - 54.0 °F 89% 30.01 in 10.0 mi Calm Calm - N/A   Clear
3:53 AM 57.0 °F - 54.0 °F 89% 30.00 in 10.0 mi Calm Calm - N/A   Clear
4:53 AM 57.0 °F - 54.0 °F 89% 30.00 in 10.0 mi Calm Calm - N/A   Clear
5:53 AM 55.9 °F - 53.1 °F 90% 30.00 in 10.0 mi Calm Calm - N/A   Clear
6:49 AM 55.4 °F - 53.6 °F 94% 30.04 in 10.0 mi Calm Calm - N/A   Mostly Cloudy
6:53 AM 57.0 °F - 54.0 °F 89% 30.01 in 10.0 mi Calm Calm - N/A   Mostly Cloudy
7:02 AM 57.2 °F - 53.6 °F 88% 30.04 in 10.0 mi Calm Calm - N/A   Overcast
7:53 AM 62.1 °F - 57.0 °F 84% 30.02 in 10.0 mi Calm Calm - N/A   Overcast
8:30 AM 62.6 °F - 60.8 °F 94% 30.06 in 1.8 mi Calm Calm - N/A   Overcast
8:49 AM 62.6 °F - 60.8 °F 94% 30.06 in 0.8 mi Calm Calm - N/A   Overcast
8:53 AM 62.1 °F - 61.0 °F 96% 30.03 in 0.8 mi Calm Calm - N/A   Overcast
9:13 AM 62.6 °F - 60.8 °F 94% 30.07 in 0.5 mi Calm Calm - N/A Fog Fog
9:42 AM 62.6 °F - 62.6 °F 100% 30.07 in 0.8 mi Calm Calm - N/A   Overcast
9:49 AM 62.6 °F - 62.6 °F 100% 30.08 in 0.5 mi Calm Calm - N/A Fog Fog
9:53 AM 63.0 °F - 62.1 °F 97% 30.05 in 0.5 mi Calm Calm - N/A Fog Fog
10:19 AM 62.6 °F - 62.6 °F 100% 30.08 in 0.8 mi Calm Calm - N/A   Overcast
10:36 AM 64.4 °F - 62.6 °F 94% 30.08 in 1.5 mi East 3.5 mph - N/A   Overcast
10:42 AM 64.4 °F - 64.4 °F 100% 30.08 in 3.0 mi Calm Calm - N/A   Overcast
10:53 AM 66.0 °F - 64.0 °F 93% 30.05 in 4.0 mi SE 5.8 mph - N/A   Overcast
11:53 AM 68.0 °F - 64.9 °F 90% 30.05 in 9.0 mi ESE 6.9 mph - N/A   Overcast
12:12 PM 69.8 °F - 64.4 °F 83% 30.07 in 10.0 mi East 6.9 mph - N/A   Overcast
12:53 PM 72.0 °F - 64.9 °F 78% 30.03 in 10.0 mi ESE 3.5 mph - N/A   Scattered Clouds
1:53 PM 78.1 °F - 64.9 °F 64% 29.98 in 10.0 mi Variable 3.5 mph - N/A   Clear
2:53 PM 82.9 °F 83.7 °F 62.1 °F 49% 29.95 in 10.0 mi SE 10.4 mph 18.4 mph N/A   Clear
3:53 PM 84.9 °F 84.4 °F 59.0 °F 41% 29.92 in 10.0 mi SE 9.2 mph - N/A   Clear
4:53 PM 84.9 °F 84.4 °F 59.0 °F 41% 29.91 in 10.0 mi SSE 11.5 mph - N/A   Clear
5:53 PM 84.0 °F 83.8 °F 59.0 °F 43% 29.90 in 10.0 mi ESE 9.2 mph 16.1 mph N/A   Clear
6:53 PM 81.0 °F 81.1 °F 57.9 °F 45% 29.91 in 10.0 mi ESE 8.1 mph - N/A   Clear
7:53 PM 79.0 °F - 57.9 °F 48% 29.92 in 10.0 mi ESE 11.5 mph 17.3 mph N/A   Clear
8:53 PM 77.0 °F - 57.0 °F 50% 29.93 in 10.0 mi East 9.2 mph - N/A   Clear
9:53 PM 73.9 °F - 57.9 °F 57% 29.93 in 10.0 mi East 9.2 mph - N/A   Clear
10:53 PM 71.1 °F - 59.0 °F 66% 29.94 in 10.0 mi East 5.8 mph - N/A   Clear
11:53 PM 69.1 °F - 59.0 °F 70% 29.94 in 10.0 mi ESE 4.6 mph - N/A   Clear